Time,TemperatureF,DewpointF,PressureIn,WindDirection,WindDirectionDegrees,WindSpeedMPH,WindSpeedGustMPH,Humidity,HourlyPrecipIn,Conditions,Clouds,dailyrainin,SoftwareType,DateUTC
2013-09-18 00:01:00,59.4,42.7,30.25,South,180,0.0,0.0,54,0.00,,,0.00,pywws,2013-09-18 04:01:00,
2013-09-18 00:02:00,59.4,42.7,30.25,South,180,0.0,0.0,54,0.00,,,0.00,pywws,2013-09-18 04:02:00,
2013-09-18 00:07:00,59.4,42.7,30.24,South,180,0.0,0.0,54,0.00,,,0.00,pywws,2013-09-18 04:07:00,
2013-09-18 00:10:00,59.2,43.0,30.24,South,180,0.7,2.2,55,0.00,,,0.00,pywws,2013-09-18 04:10:00,
2013-09-18 00:16:00,58.6,43.5,30.24,South,180,0.0,0.0,57,0.00,,,0.00,pywws,2013-09-18 04:16:00,
2013-09-18 00:22:00,58.6,43.5,30.24,South,180,0.7,2.2,57,0.00,,,0.00,pywws,2013-09-18 04:22:00,
2013-09-18 00:27:00,58.5,43.7,30.24,SE,135,5.4,8.3,58,0.00,,,0.00,pywws,2013-09-18 04:27:00,
2013-09-18 00:32:00,59.0,43.3,30.24,South,180,0.7,1.6,56,0.00,,,0.00,pywws,2013-09-18 04:32:00,
2013-09-18 00:37:00,59.2,43.0,30.24,South,180,0.7,1.6,55,0.00,,,0.00,pywws,2013-09-18 04:37:00,
2013-09-18 00:42:00,59.0,42.9,30.24,South,180,1.6,2.2,55,0.00,,,0.00,pywws,2013-09-18 04:42:00,
2013-09-18 00:47:00,59.0,42.9,30.24,South,180,2.2,3.8,55,0.00,,,0.00,pywws,2013-09-18 04:47:00,
2013-09-18 00:52:00,59.0,42.9,30.24,SE,135,1.6,3.1,55,0.00,,,0.00,pywws,2013-09-18 04:52:00,
2013-09-18 00:57:00,58.6,43.0,30.23,SE,135,1.6,3.1,56,0.00,,,0.00,pywws,2013-09-18 04:57:00,
2013-09-18 01:02:00,58.3,43.1,30.23,South,180,1.6,2.2,57,0.00,,,0.00,pywws,2013-09-18 05:02:00,
2013-09-18 01:07:00,58.3,43.1,30.23,South,180,1.6,3.1,57,0.00,,,0.00,pywws,2013-09-18 05:07:00,
2013-09-18 01:12:00,57.9,42.8,30.23,South,180,2.2,3.8,57,0.00,,,0.00,pywws,2013-09-18 05:12:00,
2013-09-18 01:17:00,57.7,43.1,30.23,SE,135,1.6,3.1,58,0.00,,,0.00,pywws,2013-09-18 05:17:00,
2013-09-18 01:22:00,57.6,42.9,30.22,South,180,1.6,3.1,58,0.00,,,0.00,pywws,2013-09-18 05:22:00,
2013-09-18 01:27:00,57.7,43.1,30.22,East,90,6.0,7.6,58,0.00,,,0.00,pywws,2013-09-18 05:27:00,
2013-09-18 01:32:00,58.1,42.9,30.22,South,180,1.6,3.1,57,0.00,,,0.00,pywws,2013-09-18 05:32:00,
2013-09-18 01:37:00,58.1,42.9,30.22,East,90,3.1,7.6,57,0.00,,,0.00,pywws,2013-09-18 05:37:00,
2013-09-18 01:42:00,58.6,43.5,30.22,SE,135,3.8,6.9,57,0.00,,,0.00,pywws,2013-09-18 05:42:00,
2013-09-18 01:47:00,58.5,43.3,30.22,South,180,5.4,6.9,57,0.00,,,0.00,pywws,2013-09-18 05:47:00,
2013-09-18 01:52:00,58.8,43.6,30.22,South,180,0.0,0.7,57,0.00,,,0.00,pywws,2013-09-18 05:52:00,
2013-09-18 01:57:00,58.6,43.5,30.22,South,180,1.6,3.1,57,0.00,,,0.00,pywws,2013-09-18 05:57:00,
2013-09-18 02:02:00,58.6,43.9,30.22,SE,135,4.5,6.0,58,0.00,,,0.00,pywws,2013-09-18 06:02:00,
2013-09-18 02:07:00,58.6,43.9,30.22,SE,135,4.5,6.0,58,0.00,,,0.00,pywws,2013-09-18 06:07:00,
2013-09-18 02:12:00,58.6,43.9,30.22,South,180,3.1,6.0,58,0.00,,,0.00,pywws,2013-09-18 06:12:00,
2013-09-18 02:17:00,58.6,43.9,30.22,SE,135,3.8,7.6,58,0.00,,,0.00,pywws,2013-09-18 06:17:00,
2013-09-18 02:22:00,58.1,43.8,30.22,SE,135,3.1,4.5,59,0.00,,,0.00,pywws,2013-09-18 06:22:00,
2013-09-18 02:27:00,58.1,44.3,30.22,SW,225,3.1,6.0,60,0.00,,,0.00,pywws,2013-09-18 06:27:00,
2013-09-18 02:32:00,58.1,44.3,30.22,South,180,6.0,9.2,60,0.00,,,0.00,pywws,2013-09-18 06:32:00,
2013-09-18 02:37:00,57.7,44.4,30.22,South,180,2.2,3.1,61,0.00,,,0.00,pywws,2013-09-18 06:37:00,
2013-09-18 02:42:00,57.6,44.6,30.22,South,180,1.6,2.2,62,0.00,,,0.00,pywws,2013-09-18 06:42:00,
2013-09-18 02:48:00,57.4,44.9,30.22,South,180,1.6,2.2,63,0.00,,,0.00,pywws,2013-09-18 06:48:00,
2013-09-18 02:54:00,57.2,45.1,30.22,South,180,5.4,8.3,64,0.00,,,0.00,pywws,2013-09-18 06:54:00,
2013-09-18 02:59:00,57.2,45.1,30.22,South,180,2.2,3.8,64,0.00,,,0.00,pywws,2013-09-18 06:59:00,
2013-09-18 03:05:00,56.7,45.0,30.22,South,180,3.8,7.6,65,0.00,,,0.00,pywws,2013-09-18 07:05:00,
2013-09-18 03:10:00,56.5,45.3,30.22,South,180,1.6,4.5,66,0.00,,,0.00,pywws,2013-09-18 07:10:00,
2013-09-18 03:16:00,56.3,45.1,30.22,SE,135,3.1,6.9,66,0.00,,,0.00,pywws,2013-09-18 07:16:00,
2013-09-18 03:22:00,55.9,45.1,30.22,SE,135,1.6,3.8,67,0.00,,,0.00,pywws,2013-09-18 07:22:00,
2013-09-18 03:27:00,55.9,45.1,30.22,South,180,0.7,2.2,67,0.00,,,0.00,pywws,2013-09-18 07:27:00,
2013-09-18 03:32:00,55.8,45.0,30.22,SW,225,2.2,4.5,67,0.00,,,0.00,pywws,2013-09-18 07:32:00,
2013-09-18 03:38:00,55.6,45.2,30.21,South,180,2.2,3.8,68,0.00,,,0.00,pywws,2013-09-18 07:38:00,
2013-09-18 03:43:00,55.4,45.0,30.21,South,180,3.8,6.9,68,0.00,,,0.00,pywws,2013-09-18 07:43:00,
2013-09-18 03:49:00,55.4,45.4,30.21,South,180,0.7,2.2,69,0.00,,,0.00,pywws,2013-09-18 07:49:00,
2013-09-18 03:54:00,55.2,45.6,30.21,South,180,2.2,3.8,70,0.00,,,0.00,pywws,2013-09-18 07:54:00,
2013-09-18 04:00:00,55.2,46.0,30.21,South,180,0.7,2.2,71,0.00,,,0.00,pywws,2013-09-18 08:00:00,
2013-09-18 04:06:00,55.2,46.0,30.21,South,180,0.7,2.2,71,0.00,,,0.00,pywws,2013-09-18 08:06:00,
2013-09-18 04:11:00,55.0,45.8,30.21,South,180,2.2,4.5,71,0.00,,,0.00,pywws,2013-09-18 08:11:00,
2013-09-18 04:17:00,55.0,45.8,30.21,SE,135,3.8,6.0,71,0.00,,,0.00,pywws,2013-09-18 08:17:00,
2013-09-18 04:22:00,55.0,45.8,30.21,South,180,4.5,5.4,71,0.00,,,0.00,pywws,2013-09-18 08:22:00,
2013-09-18 04:27:00,54.9,45.6,30.21,SE,135,1.6,3.1,71,0.00,,,0.00,pywws,2013-09-18 08:27:00,
2013-09-18 04:32:00,54.9,45.6,30.21,South,180,1.6,4.5,71,0.00,,,0.00,pywws,2013-09-18 08:32:00,
2013-09-18 04:37:00,54.9,45.6,30.21,South,180,3.1,3.8,71,0.00,,,0.00,pywws,2013-09-18 08:37:00,
2013-09-18 04:42:00,54.7,45.5,30.20,SE,135,2.2,3.8,71,0.00,,,0.00,pywws,2013-09-18 08:42:00,
2013-09-18 04:47:00,54.9,46.0,30.20,NE,45,3.1,4.5,72,0.00,,,0.00,pywws,2013-09-18 08:47:00,
2013-09-18 04:52:00,54.7,45.8,30.20,SE,135,0.7,3.1,72,0.00,,,0.00,pywws,2013-09-18 08:52:00,
2013-09-18 04:57:00,54.7,45.8,30.20,South,180,1.6,6.0,72,0.00,,,0.00,pywws,2013-09-18 08:57:00,
2013-09-18 05:02:00,54.7,45.8,30.20,South,180,3.1,4.5,72,0.00,,,0.00,pywws,2013-09-18 09:02:00,
2013-09-18 05:07:00,54.7,45.8,30.20,SE,135,2.2,4.5,72,0.00,,,0.00,pywws,2013-09-18 09:07:00,
2013-09-18 05:12:00,54.7,45.8,30.20,South,180,1.6,6.0,72,0.00,,,0.00,pywws,2013-09-18 09:12:00,
2013-09-18 05:17:00,54.5,46.0,30.20,South,180,7.6,9.8,73,0.00,,,0.00,pywws,2013-09-18 09:17:00,
2013-09-18 05:22:00,54.5,46.0,30.20,East,90,1.6,5.4,73,0.00,,,0.00,pywws,2013-09-18 09:22:00,
2013-09-18 05:27:00,54.5,46.0,30.20,South,180,2.2,3.8,73,0.00,,,0.00,pywws,2013-09-18 09:27:00,
2013-09-18 05:32:00,54.5,46.0,30.20,South,180,4.5,7.6,73,0.00,,,0.00,pywws,2013-09-18 09:32:00,
2013-09-18 05:37:00,54.5,46.0,30.20,SE,135,3.1,4.5,73,0.00,,,0.00,pywws,2013-09-18 09:37:00,
2013-09-18 05:42:00,54.5,46.4,30.19,SE,135,4.5,6.9,74,0.00,,,0.00,pywws,2013-09-18 09:42:00,
2013-09-18 05:47:00,54.5,46.4,30.20,South,180,1.6,3.1,74,0.00,,,0.00,pywws,2013-09-18 09:47:00,
2013-09-18 05:52:00,54.5,46.4,30.20,SE,135,3.1,6.0,74,0.00,,,0.00,pywws,2013-09-18 09:52:00,
2013-09-18 05:57:00,54.3,46.2,30.20,SW,225,3.1,4.5,74,0.00,,,0.00,pywws,2013-09-18 09:57:00,
2013-09-18 06:02:00,54.3,46.2,30.20,SE,135,3.1,4.5,74,0.00,,,0.00,pywws,2013-09-18 10:02:00,
2013-09-18 06:07:00,54.3,46.2,30.20,SE,135,3.1,4.5,74,0.00,,,0.00,pywws,2013-09-18 10:07:00,
2013-09-18 06:12:00,54.1,46.4,30.20,South,180,3.1,6.9,75,0.00,,,0.00,pywws,2013-09-18 10:12:00,
2013-09-18 06:17:00,54.0,46.6,30.20,SE,135,3.8,6.0,76,0.00,,,0.00,pywws,2013-09-18 10:17:00,
2013-09-18 06:22:00,54.0,46.6,30.20,South,180,1.6,3.8,76,0.00,,,0.00,pywws,2013-09-18 10:22:00,
2013-09-18 06:27:00,54.0,46.6,30.20,South,180,4.5,7.6,76,0.00,,,0.00,pywws,2013-09-18 10:27:00,
2013-09-18 06:32:00,53.8,46.4,30.20,South,180,5.4,9.2,76,0.00,,,0.00,pywws,2013-09-18 10:32:00,
2013-09-18 06:37:00,53.8,46.7,30.20,SE,135,5.4,7.6,77,0.00,,,0.00,pywws,2013-09-18 10:37:00,
2013-09-18 06:42:00,53.8,46.7,30.20,SE,135,3.1,5.4,77,0.00,,,0.00,pywws,2013-09-18 10:42:00,
2013-09-18 06:47:00,53.8,46.7,30.20,SE,135,3.8,5.4,77,0.00,,,0.00,pywws,2013-09-18 10:47:00,
2013-09-18 06:52:00,53.8,46.7,30.21,SE,135,5.4,6.9,77,0.00,,,0.00,pywws,2013-09-18 10:52:00,
2013-09-18 06:57:00,53.6,46.9,30.20,South,180,1.6,3.8,78,0.00,,,0.00,pywws,2013-09-18 10:57:00,
2013-09-18 07:02:00,53.6,46.9,30.21,SE,135,3.8,5.4,78,0.00,,,0.00,pywws,2013-09-18 11:02:00,
2013-09-18 07:07:00,53.6,46.9,30.21,SE,135,5.4,6.0,78,0.00,,,0.00,pywws,2013-09-18 11:07:00,
2013-09-18 07:12:00,53.6,46.9,30.21,South,180,2.2,3.8,78,0.00,,,0.00,pywws,2013-09-18 11:12:00,
2013-09-18 07:17:00,53.4,47.4,30.21,South,180,3.1,3.8,80,0.00,,,0.00,pywws,2013-09-18 11:17:00,
2013-09-18 07:22:00,53.4,47.7,30.21,South,180,0.0,1.6,81,0.00,,,0.00,pywws,2013-09-18 11:22:00,
2013-09-18 07:27:00,53.2,47.6,30.21,SE,135,2.2,4.5,81,0.00,,,0.00,pywws,2013-09-18 11:27:00,
2013-09-18 07:32:00,53.2,47.9,30.21,South,180,2.2,5.4,82,0.00,,,0.00,pywws,2013-09-18 11:32:00,
2013-09-18 07:37:00,53.4,48.1,30.21,South,180,1.6,3.1,82,0.00,,,0.00,pywws,2013-09-18 11:37:00,
2013-09-18 07:42:00,53.6,47.9,30.21,SE,135,3.8,5.4,81,0.00,,,0.00,pywws,2013-09-18 11:42:00,
2013-09-18 07:47:00,53.6,47.9,30.21,South,180,2.2,5.4,81,0.00,,,0.00,pywws,2013-09-18 11:47:00,
2013-09-18 07:52:00,53.8,48.1,30.21,SW,225,6.0,8.3,81,0.00,,,0.00,pywws,2013-09-18 11:52:00,
2013-09-18 07:57:00,54.0,48.3,30.21,South,180,1.6,3.1,81,0.00,,,0.00,pywws,2013-09-18 11:57:00,
2013-09-18 08:02:00,54.5,48.8,30.21,South,180,3.1,3.8,81,0.00,,,0.00,pywws,2013-09-18 12:02:00,
2013-09-18 08:07:00,54.1,48.4,30.21,South,180,2.2,3.1,81,0.00,,,0.00,pywws,2013-09-18 12:07:00,
2013-09-18 08:12:00,54.1,48.4,30.21,South,180,4.5,7.6,81,0.00,,,0.00,pywws,2013-09-18 12:12:00,
2013-09-18 08:17:00,54.1,48.4,30.21,South,180,2.2,4.5,81,0.00,,,0.00,pywws,2013-09-18 12:17:00,
2013-09-18 08:22:00,54.7,49.0,30.21,SE,135,3.8,6.0,81,0.00,,,0.00,pywws,2013-09-18 12:22:00,
2013-09-18 08:27:00,55.6,49.5,30.21,South,180,2.2,6.0,80,0.00,,,0.00,pywws,2013-09-18 12:27:00,
2013-09-18 08:32:00,56.1,49.7,30.21,NE,45,0.7,3.1,79,0.00,,,0.00,pywws,2013-09-18 12:32:00,
2013-09-18 08:37:00,56.8,50.1,30.21,SE,135,3.1,3.8,78,0.00,,,0.00,pywws,2013-09-18 12:37:00,
2013-09-18 08:42:00,57.4,49.9,30.20,SE,135,4.5,9.2,76,0.00,,,0.00,pywws,2013-09-18 12:42:00,
2013-09-18 08:47:00,57.7,50.2,30.21,South,180,3.1,4.5,76,0.00,,,0.00,pywws,2013-09-18 12:47:00,
2013-09-18 08:52:00,58.3,50.4,30.20,South,180,3.1,5.4,75,0.00,,,0.00,pywws,2013-09-18 12:52:00,
2013-09-18 08:57:00,58.3,50.4,30.20,South,180,4.5,10.7,75,0.00,,,0.00,pywws,2013-09-18 12:57:00,
2013-09-18 09:02:00,58.8,50.9,30.21,South,180,3.8,6.0,75,0.00,,,0.00,pywws,2013-09-18 13:02:00,
2013-09-18 09:07:00,59.0,50.7,30.21,South,180,0.7,2.2,74,0.00,,,0.00,pywws,2013-09-18 13:07:00,
2013-09-18 09:12:00,59.0,50.7,30.20,South,180,4.5,6.9,74,0.00,,,0.00,pywws,2013-09-18 13:12:00,
2013-09-18 09:17:00,59.4,51.1,30.21,South,180,3.8,6.0,74,0.00,,,0.00,pywws,2013-09-18 13:17:00,
2013-09-18 09:22:00,59.7,51.4,30.21,SE,135,4.5,6.9,74,0.00,,,0.00,pywws,2013-09-18 13:22:00,
2013-09-18 09:27:00,59.4,51.1,30.21,South,180,1.6,3.8,74,0.00,,,0.00,pywws,2013-09-18 13:27:00,
2013-09-18 09:32:00,59.5,51.2,30.21,East,90,1.6,3.8,74,0.00,,,0.00,pywws,2013-09-18 13:32:00,
2013-09-18 09:37:00,59.5,51.2,30.21,SE,135,3.8,5.4,74,0.00,,,0.00,pywws,2013-09-18 13:37:00,
2013-09-18 09:42:00,59.7,51.4,30.20,South,180,5.4,7.6,74,0.00,,,0.00,pywws,2013-09-18 13:42:00,
2013-09-18 09:48:00,59.9,51.6,30.20,East,90,3.1,5.4,74,0.00,,,0.00,pywws,2013-09-18 13:48:00,
2013-09-18 09:54:00,60.3,51.6,30.20,SE,135,5.4,6.9,73,0.00,,,0.00,pywws,2013-09-18 13:54:00,
2013-09-18 09:59:00,61.0,51.9,30.20,SW,225,2.2,4.5,72,0.00,,,0.00,pywws,2013-09-18 13:59:00,
2013-09-18 10:05:00,61.0,51.9,30.20,SW,225,2.2,4.5,72,0.00,,,0.00,pywws,2013-09-18 14:05:00,
2013-09-18 10:10:00,61.7,52.2,30.20,South,180,5.4,8.3,71,0.00,,,0.00,pywws,2013-09-18 14:10:00,
2013-09-18 10:16:00,61.7,52.2,30.20,South,180,5.4,7.6,71,0.00,,,0.00,pywws,2013-09-18 14:16:00,
2013-09-18 10:22:00,62.1,52.2,30.20,South,180,3.1,6.0,70,0.00,,,0.00,pywws,2013-09-18 14:22:00,
2013-09-18 10:27:00,62.4,52.1,30.20,East,90,3.8,7.6,69,0.00,,,0.00,pywws,2013-09-18 14:27:00,
2013-09-18 10:32:00,62.8,52.1,30.20,South,180,2.2,4.5,68,0.00,,,0.00,pywws,2013-09-18 14:32:00,
2013-09-18 10:38:00,63.0,52.6,30.20,South,180,1.6,2.2,69,0.00,,,0.00,pywws,2013-09-18 14:38:00,
2013-09-18 10:43:00,63.7,53.7,30.20,SE,135,4.5,7.6,70,0.00,,,0.00,pywws,2013-09-18 14:43:00,
2013-09-18 10:49:00,64.2,53.4,30.21,SE,135,3.1,3.8,68,0.00,,,0.00,pywws,2013-09-18 14:49:00,
2013-09-18 10:54:00,66.9,54.8,30.20,South,180,2.2,3.1,65,0.00,,,0.00,pywws,2013-09-18 14:54:00,
2013-09-18 11:00:00,66.9,54.3,30.20,South,180,3.1,6.0,64,0.00,,,0.00,pywws,2013-09-18 15:00:00,
2013-09-18 11:06:00,65.7,53.1,30.20,South,180,2.2,4.5,64,0.00,,,0.00,pywws,2013-09-18 15:06:00,
2013-09-18 11:11:00,65.1,53.1,30.20,SE,135,3.8,5.4,65,0.00,,,0.00,pywws,2013-09-18 15:11:00,
2013-09-18 11:17:00,66.9,54.8,30.20,South,180,1.6,3.8,65,0.00,,,0.00,pywws,2013-09-18 15:17:00,
2013-09-18 11:22:00,68.2,54.2,30.19,South,180,2.2,4.5,61,0.00,,,0.00,pywws,2013-09-18 15:22:00,
2013-09-18 11:27:00,67.3,52.5,30.19,SE,135,4.5,6.9,59,0.00,,,0.00,pywws,2013-09-18 15:27:00,
2013-09-18 11:32:00,68.7,53.8,30.19,SE,135,2.2,4.5,59,0.00,,,0.00,pywws,2013-09-18 15:32:00,
2013-09-18 11:38:00,70.7,54.7,30.19,East,90,0.7,2.2,57,0.00,,,0.00,pywws,2013-09-18 15:38:00,
2013-09-18 11:43:00,71.1,54.6,30.19,South,180,1.6,4.5,56,0.00,,,0.00,pywws,2013-09-18 15:43:00,
2013-09-18 11:49:00,71.6,54.1,30.18,South,180,1.6,6.0,54,0.00,,,0.00,pywws,2013-09-18 15:49:00,
2013-09-18 11:54:00,73.4,55.2,30.19,SE,135,5.4,6.9,53,0.00,,,0.00,pywws,2013-09-18 15:54:00,
2013-09-18 12:00:00,70.9,53.4,30.18,SE,135,1.6,4.5,54,0.00,,,0.00,pywws,2013-09-18 16:00:00,
2013-09-18 12:02:00,70.9,53.4,30.18,SE,135,1.6,4.5,54,0.00,,,0.00,pywws,2013-09-18 16:02:00,
2013-09-18 12:07:00,70.9,53.4,30.18,SE,135,1.6,4.5,54,0.00,,,0.00,pywws,2013-09-18 16:07:00,
2013-09-18 12:12:00,73.0,53.3,30.18,SE,135,3.1,8.3,50,0.00,,,0.00,pywws,2013-09-18 16:12:00,
2013-09-18 12:17:00,71.4,53.4,30.18,SE,135,2.2,4.5,53,0.00,,,0.00,pywws,2013-09-18 16:17:00,
2013-09-18 12:22:00,71.2,53.2,30.18,South,180,1.6,3.1,53,0.00,,,0.00,pywws,2013-09-18 16:22:00,
2013-09-18 12:27:00,70.5,52.6,30.18,SE,135,3.8,6.0,53,0.00,,,0.00,pywws,2013-09-18 16:27:00,
2013-09-18 12:32:00,74.8,56.0,30.17,SW,225,0.0,1.6,52,0.00,,,0.00,pywws,2013-09-18 16:32:00,
2013-09-18 12:37:00,75.6,53.9,30.18,North,0,0.0,0.0,47,0.00,,,0.00,pywws,2013-09-18 16:37:00,
2013-09-18 12:42:00,77.0,53.4,30.17,West,270,2.2,3.1,44,0.00,,,0.00,pywws,2013-09-18 16:42:00,
2013-09-18 12:47:00,72.3,49.8,30.17,East,90,0.7,2.2,45,0.00,,,0.00,pywws,2013-09-18 16:47:00,
2013-09-18 12:53:00,73.6,52.7,30.17,West,270,0.7,2.2,48,0.00,,,0.00,pywws,2013-09-18 16:53:00,
2013-09-18 12:58:00,73.4,52.5,30.17,East,90,1.6,3.1,48,0.00,,,0.00,pywws,2013-09-18 16:58:00,
2013-09-18 13:04:00,74.7,53.7,30.17,SE,135,3.1,3.8,48,0.00,,,0.00,pywws,2013-09-18 17:04:00,
2013-09-18 13:10:00,75.2,53.0,30.17,South,180,0.7,2.2,46,0.00,,,0.00,pywws,2013-09-18 17:10:00,
2013-09-18 13:15:00,75.6,53.3,30.16,North,0,1.6,2.2,46,0.00,,,0.00,pywws,2013-09-18 17:15:00,
2013-09-18 13:21:00,72.7,51.3,30.16,South,180,5.4,8.3,47,0.00,,,0.00,pywws,2013-09-18 17:21:00,
2013-09-18 13:26:00,72.3,52.1,30.16,South,180,8.3,9.8,49,0.00,,,0.00,pywws,2013-09-18 17:26:00,
2013-09-18 13:31:00,71.8,51.6,30.16,South,180,3.8,6.0,49,0.00,,,0.00,pywws,2013-09-18 17:31:00,
2013-09-18 13:37:00,72.9,53.7,30.16,South,180,0.7,1.6,51,0.00,,,0.00,pywws,2013-09-18 17:37:00,
2013-09-18 13:42:00,73.8,53.4,30.16,East,90,1.6,3.8,49,0.00,,,0.00,pywws,2013-09-18 17:42:00,
2013-09-18 13:47:00,74.3,53.9,30.16,East,90,0.7,2.2,49,0.00,,,0.00,pywws,2013-09-18 17:47:00,
2013-09-18 13:52:00,73.9,53.6,30.15,SE,135,3.1,5.4,49,0.00,,,0.00,pywws,2013-09-18 17:52:00,
2013-09-18 13:58:00,73.4,54.2,30.14,South,180,0.7,1.6,51,0.00,,,0.00,pywws,2013-09-18 17:58:00,
2013-09-18 14:03:00,73.2,54.0,30.14,South,180,1.6,3.1,51,0.00,,,0.00,pywws,2013-09-18 18:03:00,
2013-09-18 14:09:00,71.8,53.2,30.14,NE,45,3.1,6.0,52,0.00,,,0.00,pywws,2013-09-18 18:09:00,
2013-09-18 14:14:00,73.0,54.4,30.14,North,0,0.0,3.1,52,0.00,,,0.00,pywws,2013-09-18 18:14:00,
2013-09-18 14:20:00,73.6,54.3,30.14,SE,135,1.6,3.1,51,0.00,,,0.00,pywws,2013-09-18 18:20:00,
2013-09-18 14:26:00,73.2,54.5,30.14,South,180,2.2,3.8,52,0.00,,,0.00,pywws,2013-09-18 18:26:00,
2013-09-18 14:31:00,73.8,55.5,30.14,SW,225,3.1,4.5,53,0.00,,,0.00,pywws,2013-09-18 18:31:00,
2013-09-18 14:37:00,72.5,53.9,30.13,North,0,6.0,11.4,52,0.00,,,0.00,pywws,2013-09-18 18:37:00,
2013-09-18 14:42:00,71.4,53.9,30.13,South,180,2.2,3.8,54,0.00,,,0.00,pywws,2013-09-18 18:42:00,
2013-09-18 14:47:00,71.6,53.0,30.13,South,180,4.5,5.4,52,0.00,,,0.00,pywws,2013-09-18 18:47:00,
2013-09-18 14:53:00,72.1,53.5,30.13,South,180,4.5,6.9,52,0.00,,,0.00,pywws,2013-09-18 18:53:00,
2013-09-18 14:58:00,72.9,54.2,30.13,SE,135,4.5,6.9,52,0.00,,,0.00,pywws,2013-09-18 18:58:00,
2013-09-18 15:04:00,73.0,54.4,30.13,SW,225,3.8,6.0,52,0.00,,,0.00,pywws,2013-09-18 19:04:00,
2013-09-18 15:10:00,72.5,53.9,30.13,West,270,0.7,3.8,52,0.00,,,0.00,pywws,2013-09-18 19:10:00,
2013-09-18 15:15:00,72.7,54.5,30.13,SE,135,3.8,8.3,53,0.00,,,0.00,pywws,2013-09-18 19:15:00,
2013-09-18 15:20:00,73.4,54.7,30.12,South,180,0.7,2.2,52,0.00,,,0.00,pywws,2013-09-18 19:20:00,
2013-09-18 15:26:00,72.3,53.7,30.12,South,180,2.2,3.8,52,0.00,,,0.00,pywws,2013-09-18 19:26:00,
2013-09-18 15:31:00,73.0,54.9,30.12,South,180,3.1,6.9,53,0.00,,,0.00,pywws,2013-09-18 19:31:00,
2013-09-18 15:37:00,73.0,54.9,30.12,South,180,4.5,7.6,53,0.00,,,0.00,pywws,2013-09-18 19:37:00,
2013-09-18 15:42:00,73.4,54.7,30.12,South,180,6.0,7.6,52,0.00,,,0.00,pywws,2013-09-18 19:42:00,
2013-09-18 15:47:00,74.7,55.9,30.11,SW,225,5.4,7.6,52,0.00,,,0.00,pywws,2013-09-18 19:47:00,
2013-09-18 15:53:00,74.7,55.9,30.11,South,180,1.6,4.5,52,0.00,,,0.00,pywws,2013-09-18 19:53:00,
2013-09-18 15:58:00,73.2,54.0,30.11,SE,135,5.4,7.6,51,0.00,,,0.00,pywws,2013-09-18 19:58:00,
2013-09-18 16:04:00,73.0,54.4,30.11,North,0,3.8,6.0,52,0.00,,,0.00,pywws,2013-09-18 20:04:00,
2013-09-18 16:09:00,73.0,54.9,30.11,South,180,0.7,1.6,53,0.00,,,0.00,pywws,2013-09-18 20:09:00,
2013-09-18 16:14:00,73.4,55.2,30.11,South,180,0.7,1.6,53,0.00,,,0.00,pywws,2013-09-18 20:14:00,
2013-09-18 16:20:00,72.7,54.5,30.11,SE,135,3.1,6.9,53,0.00,,,0.00,pywws,2013-09-18 20:20:00,
2013-09-18 16:26:00,72.3,54.7,30.11,South,180,6.0,9.2,54,0.00,,,0.00,pywws,2013-09-18 20:26:00,
2013-09-18 16:31:00,72.3,55.2,30.11,South,180,3.1,5.4,55,0.00,,,0.00,pywws,2013-09-18 20:31:00,
2013-09-18 16:37:00,72.7,55.1,30.11,South,180,0.0,1.6,54,0.00,,,0.00,pywws,2013-09-18 20:37:00,
2013-09-18 16:42:00,72.9,55.2,30.11,East,90,1.6,3.8,54,0.00,,,0.00,pywws,2013-09-18 20:42:00,
2013-09-18 16:47:00,72.5,55.4,30.10,South,180,3.1,5.4,55,0.00,,,0.00,pywws,2013-09-18 20:47:00,
2013-09-18 16:52:00,73.2,56.6,30.10,SE,135,1.6,3.8,56,0.00,,,0.00,pywws,2013-09-18 20:52:00,
2013-09-18 16:57:00,73.2,56.1,30.10,West,270,1.6,3.1,55,0.00,,,0.00,pywws,2013-09-18 20:57:00,
2013-09-18 17:02:00,73.4,56.7,30.10,NE,45,1.6,3.1,56,0.00,,,0.00,pywws,2013-09-18 21:02:00,
2013-09-18 17:08:00,73.2,56.1,30.10,East,90,3.8,6.0,55,0.00,,,0.00,pywws,2013-09-18 21:08:00,
2013-09-18 17:14:00,72.9,56.2,30.10,SE,135,3.8,4.5,56,0.00,,,0.00,pywws,2013-09-18 21:14:00,
2013-09-18 17:19:00,72.9,56.7,30.10,SE,135,4.5,6.9,57,0.00,,,0.00,pywws,2013-09-18 21:19:00,
2013-09-18 17:25:00,72.5,56.4,30.09,South,180,3.8,4.5,57,0.00,,,0.00,pywws,2013-09-18 21:25:00,
2013-09-18 17:30:00,72.5,56.4,30.10,South,180,4.5,7.6,57,0.00,,,0.00,pywws,2013-09-18 21:30:00,
2013-09-18 17:36:00,72.5,56.4,30.09,SE,135,2.2,4.5,57,0.00,,,0.00,pywws,2013-09-18 21:36:00,
2013-09-18 17:41:00,72.5,56.4,30.09,SE,135,3.8,5.4,57,0.00,,,0.00,pywws,2013-09-18 21:41:00,
2013-09-18 17:47:00,73.0,57.4,30.10,South,180,1.6,2.2,58,0.00,,,0.00,pywws,2013-09-18 21:47:00,
2013-09-18 17:52:00,72.7,56.6,30.10,South,180,3.8,5.4,57,0.00,,,0.00,pywws,2013-09-18 21:52:00,
2013-09-18 17:57:00,73.2,57.5,30.09,NE,45,0.0,0.7,58,0.00,,,0.00,pywws,2013-09-18 21:57:00,
2013-09-18 18:03:00,72.5,56.4,30.09,South,180,1.6,3.8,57,0.00,,,0.00,pywws,2013-09-18 22:03:00,
2013-09-18 18:08:00,72.1,57.0,30.09,NE,45,3.8,5.4,59,0.00,,,0.00,pywws,2013-09-18 22:08:00,
2013-09-18 18:14:00,71.4,57.3,30.09,East,90,0.7,2.2,61,0.00,,,0.00,pywws,2013-09-18 22:14:00,
2013-09-18 18:19:00,71.4,57.7,30.09,South,180,0.0,2.2,62,0.00,,,0.00,pywws,2013-09-18 22:19:00,
2013-09-18 18:25:00,71.2,57.5,30.09,South,180,0.7,2.2,62,0.00,,,0.00,pywws,2013-09-18 22:25:00,
2013-09-18 18:30:00,70.9,57.6,30.10,South,180,0.7,2.2,63,0.00,,,0.00,pywws,2013-09-18 22:30:00,
2013-09-18 18:36:00,70.5,57.7,30.09,South,180,0.0,0.7,64,0.00,,,0.00,pywws,2013-09-18 22:36:00,
2013-09-18 18:41:00,70.3,58.0,30.09,South,180,0.7,1.6,65,0.00,,,0.00,pywws,2013-09-18 22:41:00,
2013-09-18 18:47:00,70.3,58.0,30.09,South,180,1.6,3.1,65,0.00,,,0.00,pywws,2013-09-18 22:47:00,
2013-09-18 18:52:00,70.0,58.1,30.09,South,180,0.7,2.2,66,0.00,,,0.00,pywws,2013-09-18 22:52:00,
2013-09-18 18:57:00,70.0,58.1,30.09,South,180,0.0,0.0,66,0.00,,,0.00,pywws,2013-09-18 22:57:00,
2013-09-18 19:03:00,70.0,58.5,30.09,SE,135,0.0,1.6,67,0.00,,,0.00,pywws,2013-09-18 23:03:00,
2013-09-18 19:09:00,69.8,58.3,30.09,South,180,0.7,2.2,67,0.00,,,0.00,pywws,2013-09-18 23:09:00,
2013-09-18 19:14:00,69.4,58.8,30.09,South,180,0.0,0.0,69,0.00,,,0.00,pywws,2013-09-18 23:14:00,
2013-09-18 19:20:00,69.3,59.0,30.09,South,180,0.0,0.0,70,0.00,,,0.00,pywws,2013-09-18 23:20:00,
2013-09-18 19:26:00,69.1,59.3,30.09,South,180,0.0,0.0,71,0.00,,,0.00,pywws,2013-09-18 23:26:00,
2013-09-18 19:31:00,68.9,59.5,30.09,South,180,0.0,1.6,72,0.00,,,0.00,pywws,2013-09-18 23:31:00,
2013-09-18 19:37:00,68.7,59.3,30.09,South,180,0.0,0.7,72,0.00,,,0.00,pywws,2013-09-18 23:37:00,
2013-09-18 19:42:00,68.2,59.2,30.09,South,180,0.0,0.0,73,0.00,,,0.00,pywws,2013-09-18 23:42:00,
2013-09-18 19:48:00,68.2,59.6,30.09,South,180,0.7,1.6,74,0.00,,,0.00,pywws,2013-09-18 23:48:00,
2013-09-18 19:54:00,68.0,59.4,30.10,South,180,0.0,0.7,74,0.00,,,0.00,pywws,2013-09-18 23:54:00,
2013-09-18 19:59:00,67.6,59.8,30.10,South,180,0.0,0.0,76,0.00,,,0.00,pywws,2013-09-18 23:59:00,
2013-09-18 20:05:00,67.6,59.8,30.10,South,180,0.0,0.7,76,0.00,,,0.00,pywws,2013-09-19 00:05:00,
2013-09-18 20:10:00,67.3,59.4,30.10,South,180,0.7,1.6,76,0.00,,,0.00,pywws,2013-09-19 00:10:00,
2013-09-18 20:16:00,67.1,59.6,30.10,South,180,0.0,1.6,77,0.00,,,0.00,pywws,2013-09-19 00:16:00,
2013-09-18 20:22:00,66.9,59.5,30.10,South,180,0.0,0.0,77,0.00,,,0.00,pywws,2013-09-19 00:22:00,
2013-09-18 20:27:00,66.9,59.5,30.10,South,180,0.0,0.0,77,0.00,,,0.00,pywws,2013-09-19 00:27:00,
2013-09-18 20:33:00,66.6,59.1,30.10,South,180,1.6,3.1,77,0.00,,,0.00,pywws,2013-09-19 00:33:00,
2013-09-18 20:38:00,66.4,59.3,30.10,South,180,0.0,0.7,78,0.00,,,0.00,pywws,2013-09-19 00:38:00,
2013-09-18 20:44:00,66.4,59.7,30.11,South,180,1.6,2.2,79,0.00,,,0.00,pywws,2013-09-19 00:44:00,
2013-09-18 20:50:00,66.4,59.7,30.10,South,180,2.2,2.2,79,0.00,,,0.00,pywws,2013-09-19 00:50:00,
2013-09-18 20:55:00,66.6,59.5,30.11,SE,135,0.0,1.6,78,0.00,,,0.00,pywws,2013-09-19 00:55:00,
2013-09-18 21:01:00,66.7,59.7,30.11,SE,135,2.2,3.1,78,0.00,,,0.00,pywws,2013-09-19 01:01:00,
2013-09-18 21:06:00,66.9,59.8,30.11,South,180,0.0,2.2,78,0.00,,,0.00,pywws,2013-09-19 01:06:00,
2013-09-18 21:12:00,67.1,60.0,30.11,South,180,1.6,3.8,78,0.00,,,0.00,pywws,2013-09-19 01:12:00,
2013-09-18 21:17:00,67.3,60.2,30.11,South,180,2.2,3.8,78,0.00,,,0.00,pywws,2013-09-19 01:17:00,
2013-09-18 21:22:00,67.1,60.0,30.11,South,180,1.6,2.2,78,0.00,,,0.00,pywws,2013-09-19 01:22:00,
2013-09-18 21:28:00,66.9,59.8,30.11,South,180,1.6,3.1,78,0.00,,,0.00,pywws,2013-09-19 01:28:00,
2013-09-18 21:33:00,66.7,60.0,30.11,South,180,1.6,2.2,79,0.00,,,0.00,pywws,2013-09-19 01:33:00,
2013-09-18 21:39:00,66.6,60.2,30.11,South,180,1.6,3.1,80,0.00,,,0.00,pywws,2013-09-19 01:39:00,
2013-09-18 21:45:00,66.6,60.2,30.12,South,180,1.6,3.1,80,0.00,,,0.00,pywws,2013-09-19 01:45:00,
2013-09-18 21:50:00,66.4,60.4,30.11,South,180,0.7,2.2,81,0.00,,,0.00,pywws,2013-09-19 01:50:00,
2013-09-18 21:56:00,66.0,60.7,30.11,SE,135,2.2,3.1,83,0.00,,,0.00,pywws,2013-09-19 01:56:00,
2013-09-18 22:01:00,66.0,60.7,30.12,South,180,3.1,4.5,83,0.00,,,0.00,pywws,2013-09-19 02:01:00,
2013-09-18 22:07:00,65.8,60.9,30.11,SE,135,3.8,6.9,84,0.00,,,0.00,pywws,2013-09-19 02:07:00,
2013-09-18 22:12:00,65.7,61.0,30.11,South,180,2.2,3.8,85,0.00,,,0.00,pywws,2013-09-19 02:12:00,
2013-09-18 22:17:00,65.5,60.8,30.11,South,180,3.1,4.5,85,0.00,,,0.00,pywws,2013-09-19 02:17:00,
2013-09-18 22:23:00,65.3,61.0,30.11,South,180,2.2,3.8,86,0.00,,,0.00,pywws,2013-09-19 02:23:00,
2013-09-18 22:29:00,65.1,60.8,30.11,South,180,2.2,4.5,86,0.00,,,0.00,pywws,2013-09-19 02:29:00,
2013-09-18 22:34:00,64.9,60.6,30.12,South,180,0.7,2.2,86,0.00,,,0.00,pywws,2013-09-19 02:34:00,
2013-09-18 22:40:00,64.9,61.0,30.11,South,180,3.8,5.4,87,0.00,,,0.00,pywws,2013-09-19 02:40:00,
2013-09-18 22:45:00,64.8,61.1,30.11,SE,135,3.1,5.4,88,0.00,,,0.00,pywws,2013-09-19 02:45:00,
2013-09-18 22:51:00,64.6,60.9,30.11,SE,135,4.5,6.0,88,0.00,,,0.00,pywws,2013-09-19 02:51:00,
2013-09-18 22:57:00,64.6,60.9,30.11,South,180,3.1,5.4,88,0.00,,,0.00,pywws,2013-09-19 02:57:00,
2013-09-18 23:03:00,64.6,60.9,30.11,SE,135,3.1,3.8,88,0.00,,,0.00,pywws,2013-09-19 03:03:00,
2013-09-18 23:08:00,64.4,61.1,30.11,South,180,1.6,3.1,89,0.00,,,0.00,pywws,2013-09-19 03:08:00,
2013-09-18 23:13:00,64.2,60.9,30.11,SE,135,2.2,4.5,89,0.00,,,0.00,pywws,2013-09-19 03:13:00,
2013-09-18 23:19:00,64.0,60.7,30.11,South,180,2.2,4.5,89,0.00,,,0.00,pywws,2013-09-19 03:19:00,
2013-09-18 23:25:00,63.9,60.9,30.11,East,90,3.1,5.4,90,0.00,,,0.00,pywws,2013-09-19 03:25:00,
2013-09-18 23:30:00,64.0,61.0,30.11,South,180,3.8,6.0,90,0.00,,,0.00,pywws,2013-09-19 03:30:00,
2013-09-18 23:36:00,63.9,60.9,30.11,SE,135,2.2,3.8,90,0.00,,,0.00,pywws,2013-09-19 03:36:00,
2013-09-18 23:42:00,63.9,60.9,30.11,East,90,3.1,4.5,90,0.00,,,0.00,pywws,2013-09-19 03:42:00,
2013-09-18 23:47:00,63.7,61.0,30.11,SE,135,2.2,3.1,91,0.00,,,0.00,pywws,2013-09-19 03:47:00,
2013-09-18 23:52:00,63.7,61.0,30.11,SE,135,4.5,6.0,91,0.00,,,0.00,pywws,2013-09-19 03:52:00,
2013-09-18 23:57:00,63.7,61.0,30.11,South,180,0.7,3.1,91,0.00,,,0.00,pywws,2013-09-19 03:57:00,